Tracking 29892 objects as of 21-Nov-2024
HD Live streaming from Space Station
objects crossing your sky now

COSMOS 1885 (GLONASS)

Track COSMOS 1885 (GLONASS) now!
COSMOS 1885 (GLONASS) is classified as:


NORAD ID: 18357
Int'l Code: 1987-079C
Perigee: 19,079.1 km
Apogee: 19,194.9 km
Inclination: 65.9 °
Period: 675.7 minutes
Semi major axis: 25508 km
RCS: 1.3999 m2 (large)
Launch date: September 16, 1987
Source: Commonwealth of Independent States (former USSR) (CIS)
Launch site: TYURATAM MISSILE AND SPACE COMPLEX (TTMTR)
Your satellite tracking list
Your tracking list is empty




NASA's NSSDC Master Catalog

Two Line Element Set (TLE):
1 18357U 87079C   24325.30377238 -.00000058  00000-0  00000-0 0  9998
2 18357  65.8919 338.2470 0022708 214.1360 146.4719  2.13102240272915
Source of the keplerian elements: AFSPC